THY6501 LTFM-LYBE

Flight info

Callsign THY6501
Flight time 1h 22m
Altitude 40000
Route VADEN N618 BAKLO DCT XANEX DCT UTEKA DCT OSVIX
Aircraft A332/H-SDE3GHIJ2J3J5M1RVWXY/LB2D1

Departure

Time 2026-02-20 05:27
Airport İstanbul Airport (LTFM)

Arrival

Time 2026-02-20 06:49
Airport Belgrade Nikola Tesla Airport (LYBE)
Time Latitude Longitude Altitude Speed Heading
2026-02-20 04:42 41.26792 28.73745 338 ft 0 kts 269°
2026-02-20 05:09 41.26792 28.73766 332 ft 3 kts 269°
2026-02-20 05:09 41.26792 28.73792 335 ft 3 kts 284°
2026-02-20 05:09 41.26788 28.73816 332 ft 3 kts 271°
2026-02-20 05:10 41.26789 28.73841 332 ft 3 kts 239°
2026-02-20 05:10 41.26801 28.73860 332 ft 3 kts 208°
2026-02-20 05:10 41.26817 28.73870 333 ft 3 kts 187°
2026-02-20 05:10 41.26836 28.73874 332 ft 3 kts 166°
2026-02-20 05:11 41.26840 28.73873 332 ft 0 kts 158°
2026-02-20 05:13 41.26830 28.73877 332 ft 3 kts 162°
2026-02-20 05:13 41.26809 28.73880 332 ft 3 kts 185°
2026-02-20 05:13 41.26779 28.73876 333 ft 5 kts 184°
2026-02-20 05:13 41.26735 28.73875 333 ft 7 kts 181°
2026-02-20 05:14 41.26680 28.73876 333 ft 9 kts 177°
2026-02-20 05:14 41.26615 28.73879 332 ft 10 kts 179°
2026-02-20 05:14 41.26558 28.73918 333 ft 9 kts 116°
2026-02-20 05:14 41.26566 28.74001 334 ft 10 kts 57°
2026-02-20 05:15 41.26627 28.74024 335 ft 10 kts 357°
2026-02-20 05:15 41.26707 28.74019 334 ft 13 kts 357°
2026-02-20 05:15 41.26797 28.74019 334 ft 11 kts 359°
2026-02-20 05:15 41.26840 28.74017 337 ft 6 kts 359°
2026-02-20 05:16 41.26893 28.74016 333 ft 9 kts 359°
2026-02-20 05:16 41.26963 28.74014 335 ft 11 kts 359°
2026-02-20 05:16 41.27041 28.73993 335 ft 11 kts 319°
2026-02-20 05:16 41.27052 28.73899 333 ft 11 kts 268°
2026-02-20 05:17 41.27050 28.73787 336 ft 13 kts 268°
2026-02-20 05:17 41.27048 28.73656 334 ft 15 kts 269°
2026-02-20 05:17 41.27046 28.73509 334 ft 17 kts 269°
2026-02-20 05:17 41.27044 28.73345 336 ft 19 kts 269°
2026-02-20 05:18 41.27041 28.73175 338 ft 13 kts 268°
2026-02-20 05:18 41.27064 28.73114 337 ft 6 kts 326°
2026-02-20 05:18 41.27118 28.73099 334 ft 10 kts 357°
2026-02-20 05:18 41.27207 28.73097 335 ft 17 kts
2026-02-20 05:19 41.27331 28.73095 334 ft 19 kts 359°
2026-02-20 05:19 41.27468 28.73091 337 ft 20 kts 360°
2026-02-20 05:19 41.27557 28.73087 334 ft 7 kts 349°
2026-02-20 05:19 41.27595 28.73033 334 ft 10 kts 289°
2026-02-20 05:20 41.27641 28.72977 334 ft 12 kts 345°
2026-02-20 05:20 41.27748 28.72968 334 ft 18 kts 359°
2026-02-20 05:20 41.27883 28.72965 336 ft 20 kts 359°
2026-02-20 05:21 41.28192 28.72958 334 ft 24 kts 359°
2026-02-20 05:21 41.28364 28.72954 335 ft 25 kts 358°
2026-02-20 05:21 41.28538 28.72948 337 ft 27 kts 359°
2026-02-20 05:21 41.28728 28.72948 334 ft 28 kts 358°
2026-02-20 05:22 41.28926 28.72941 334 ft 29 kts 359°
2026-02-20 05:22 41.29131 28.72936 334 ft 30 kts 358°
2026-02-20 05:22 41.29343 28.72930 334 ft 31 kts 359°
2026-02-20 05:22 41.29558 28.72925 335 ft 25 kts 358°
2026-02-20 05:23 41.29680 28.72923 333 ft 14 kts 359°
2026-02-20 05:23 41.29786 28.72922 336 ft 16 kts
2026-02-20 05:23 41.29860 28.72915 333 ft 4 kts 334°
2026-02-20 05:23 41.29872 28.72892 334 ft 3 kts 296°
2026-02-20 05:24 41.29874 28.72884 333 ft 0 kts 288°
2026-02-20 05:24 41.29880 28.72857 336 ft 6 kts 284°
2026-02-20 05:24 41.29886 28.72800 338 ft 7 kts 267°
2026-02-20 05:25 41.29882 28.72700 338 ft 12 kts 266°
2026-02-20 05:25 41.29876 28.72577 335 ft 14 kts 268°
2026-02-20 05:25 41.29868 28.72468 335 ft 10 kts 242°
2026-02-20 05:25 41.29810 28.72443 334 ft 9 kts 178°
2026-02-20 05:26 41.29783 28.72443 333 ft 0 kts 180°
2026-02-20 05:26 41.29590 28.72447 335 ft 62 kts 178°
2026-02-20 05:26 41.28940 28.72462 334 ft 122 kts 179°
2026-02-20 05:26 41.27972 28.72493 650 ft 144 kts 179°
2026-02-20 05:27 41.27024 28.72766 1518 ft 136 kts 166°
2026-02-20 05:27 41.26185 28.73191 2408 ft 126 kts 175°
2026-02-20 05:27 41.25246 28.73342 2722 ft 148 kts 186°
2026-02-20 05:27 41.24137 28.73159 3003 ft 174 kts 197°
2026-02-20 05:28 41.22834 28.72855 3342 ft 206 kts 190°
2026-02-20 05:28 41.21312 28.72787 3884 ft 228 kts 183°
2026-02-20 05:28 41.19686 28.72848 4726 ft 236 kts 185°
2026-02-20 05:28 41.18156 28.72276 5670 ft 234 kts 216°
2026-02-20 05:29 41.17216 28.70523 6580 ft 244 kts 253°
2026-02-20 05:29 41.17287 28.68232 7589 ft 253 kts 277°
2026-02-20 05:29 41.17596 28.65908 8547 ft 259 kts 275°
2026-02-20 05:29 41.17813 28.63508 9524 ft 263 kts 271°
2026-02-20 05:30 41.17937 28.61107 10589 ft 262 kts 273°
2026-02-20 05:30 41.18439 28.58694 11223 ft 286 kts 291°
2026-02-20 05:30 41.19754 28.56548 11682 ft 319 kts 318°
2026-02-20 05:30 41.21851 28.55335 12408 ft 342 kts 345°
2026-02-20 05:31 41.24261 28.55100 13261 ft 351 kts 354°
2026-02-20 05:31 41.26722 28.55098 14118 ft 356 kts 355°
2026-02-20 05:31 41.29224 28.55106 14858 ft 361 kts 355°
2026-02-20 05:31 41.31765 28.55276 15593 ft 368 kts
2026-02-20 05:32 41.34333 28.55646 16298 ft 374 kts
2026-02-20 05:32 41.36904 28.56049 16989 ft 380 kts
2026-02-20 05:32 41.39548 28.56464 17690 ft 384 kts
2026-02-20 05:32 41.42223 28.56876 18374 ft 389 kts
2026-02-20 05:33 41.44926 28.57081 18968 ft 390 kts 355°
2026-02-20 05:33 41.47650 28.57071 19440 ft 392 kts 354°
2026-02-20 05:33 41.50371 28.57016 19697 ft 392 kts 353°
2026-02-20 05:33 41.53108 28.56954 19960 ft 394 kts 353°
2026-02-20 05:34 41.55848 28.56894 20436 ft 394 kts 353°
2026-02-20 05:34 41.58604 28.56834 21022 ft 397 kts 353°
2026-02-20 05:34 41.61376 28.56774 21524 ft 400 kts 354°
2026-02-20 05:34 41.64166 28.56708 22025 ft 402 kts 352°
2026-02-20 05:35 41.66938 28.56325 22500 ft 399 kts 343°
2026-02-20 05:35 41.69578 28.55226 23023 ft 396 kts 330°
2026-02-20 05:35 41.71918 28.53431 23545 ft 390 kts 317°
2026-02-20 05:35 41.73907 28.51009 24027 ft 385 kts 306°
2026-02-20 05:36 41.75445 28.48101 24508 ft 380 kts 294°
2026-02-20 05:36 41.76476 28.44871 24985 ft 376 kts 282°
2026-02-20 05:36 41.76988 28.41453 25494 ft 373 kts 272°
2026-02-20 05:36 41.77213 28.37991 25987 ft 373 kts 270°
2026-02-20 05:37 41.77384 28.34541 26459 ft 375 kts 270°
2026-02-20 05:37 41.77555 28.31053 26916 ft 377 kts 270°
2026-02-20 05:37 41.77732 28.27541 27373 ft 379 kts 270°
2026-02-20 05:37 41.77937 28.23997 27817 ft 382 kts 272°
2026-02-20 05:38 41.78411 28.20472 28258 ft 389 kts 279°
2026-02-20 05:38 41.79263 28.17213 28657 ft 397 kts 288°
2026-02-20 05:38 41.80571 28.13897 29072 ft 404 kts 294°
2026-02-20 05:38 41.81928 28.10836 29507 ft 406 kts 295°
2026-02-20 05:39 41.83385 28.07600 29911 ft 409 kts 294°
2026-02-20 05:39 41.84710 28.04242 30248 ft 406 kts 287°
2026-02-20 05:39 41.85638 28.00673 30577 ft 402 kts 278°
2026-02-20 05:39 41.86095 27.97029 30914 ft 398 kts 270°
2026-02-20 05:40 41.86268 27.93321 31259 ft 398 kts 268°
2026-02-20 05:40 41.86383 27.89600 31584 ft 400 kts 268°
2026-02-20 05:40 41.86492 27.85852 31903 ft 402 kts 268°
2026-02-20 05:40 41.86594 27.82472 32256 ft 401 kts 268°
2026-02-20 05:41 41.86710 27.78608 32779 ft 400 kts 268°
2026-02-20 05:41 41.86823 27.74893 33301 ft 397 kts 268°
2026-02-20 05:41 41.86934 27.71212 33801 ft 394 kts 268°
2026-02-20 05:41 41.87044 27.67548 34264 ft 392 kts 268°
2026-02-20 05:42 41.87153 27.63895 34674 ft 390 kts 268°
2026-02-20 05:42 41.87260 27.60270 35075 ft 387 kts 268°
2026-02-20 05:42 41.87415 27.56666 35471 ft 387 kts 271°
2026-02-20 05:42 41.87858 27.53101 35854 ft 390 kts 278°
2026-02-20 05:43 41.88698 27.49610 36211 ft 394 kts 286°
2026-02-20 05:43 41.89939 27.46308 36578 ft 400 kts 294°
2026-02-20 05:43 41.91577 27.43247 36966 ft 407 kts 302°
2026-02-20 05:44 41.95413 27.37634 37700 ft 407 kts 305°
2026-02-20 05:44 41.97357 27.34862 38039 ft 406 kts 304°
2026-02-20 05:44 41.99263 27.32135 38364 ft 405 kts 304°
2026-02-20 05:44 42.01211 27.29337 38720 ft 403 kts 304°
2026-02-20 05:45 42.03089 27.26635 39019 ft 400 kts 304°
2026-02-20 05:45 42.04945 27.23955 39208 ft 400 kts 304°
2026-02-20 05:45 42.06882 27.21142 39403 ft 400 kts 304°
2026-02-20 05:45 42.08757 27.18365 39554 ft 401 kts 304°
2026-02-20 05:46 42.10621 27.15570 39736 ft 401 kts 303°
2026-02-20 05:46 42.12486 27.12760 39899 ft 402 kts 303°
2026-02-20 05:46 42.14342 27.09955 40051 ft 403 kts 303°
2026-02-20 05:46 42.16222 27.07112 40089 ft 407 kts 304°
2026-02-20 05:47 42.20019 27.01366 40064 ft 417 kts 304°
2026-02-20 05:47 42.23898 26.95512 40074 ft 418 kts 304°
2026-02-20 05:48 42.27768 26.89669 40060 ft 417 kts 304°
2026-02-20 05:48 42.30955 26.84843 40064 ft 417 kts 304°
2026-02-20 05:49 42.35167 26.78447 40061 ft 416 kts 304°
2026-02-20 05:49 42.39015 26.72589 40055 ft 417 kts 304°
2026-02-20 05:50 42.42870 26.66706 40059 ft 418 kts 304°
2026-02-20 05:50 42.46728 26.60810 40051 ft 418 kts 304°
2026-02-20 05:51 42.50566 26.54935 40047 ft 419 kts 304°
2026-02-20 05:51 42.54229 26.48863 40053 ft 411 kts 296°
2026-02-20 05:52 42.56653 26.43290 40048 ft 408 kts 292°
2026-02-20 05:52 42.59362 26.36527 40049 ft 408 kts 291°
2026-02-20 05:53 42.62002 26.29772 40048 ft 408 kts 291°
2026-02-20 05:53 42.64669 26.22951 40064 ft 408 kts 291°
2026-02-20 05:54 42.67343 26.16129 40041 ft 409 kts 291°
2026-02-20 05:54 42.70016 26.09306 40030 ft 410 kts 291°
2026-02-20 05:55 42.72697 26.02455 40025 ft 409 kts 291°
2026-02-20 05:55 42.75345 25.95665 40024 ft 409 kts 291°
2026-02-20 05:56 42.78011 25.88813 40017 ft 411 kts 291°
2026-02-20 05:56 42.80686 25.81916 40023 ft 412 kts 291°
2026-02-20 05:57 42.83364 25.75003 40007 ft 412 kts 291°
2026-02-20 05:57 42.86033 25.68092 40003 ft 412 kts 291°
2026-02-20 05:58 42.88698 25.61173 39998 ft 413 kts 291°
2026-02-20 05:58 42.91368 25.54228 39970 ft 413 kts 291°
2026-02-20 05:59 42.94018 25.47316 39972 ft 413 kts 291°
2026-02-20 05:59 42.96679 25.40360 39968 ft 413 kts 291°
2026-02-20 06:00 42.99341 25.33384 39973 ft 413 kts 291°
2026-02-20 06:00 43.01995 25.26412 39969 ft 413 kts 291°
2026-02-20 06:01 43.04642 25.19440 39959 ft 413 kts 291°
2026-02-20 06:01 43.07286 25.12462 39957 ft 413 kts 291°
2026-02-20 06:02 43.09914 25.05505 39941 ft 414 kts 291°
2026-02-20 06:02 43.12550 24.98491 39940 ft 414 kts 290°
2026-02-20 06:03 43.14945 24.91362 39953 ft 411 kts 287°
2026-02-20 06:03 43.17191 24.84159 39940 ft 411 kts 287°
2026-02-20 06:04 43.19431 24.76953 39959 ft 411 kts 287°
2026-02-20 06:04 43.21693 24.69746 39936 ft 411 kts 287°
2026-02-20 06:05 43.23959 24.62547 39937 ft 411 kts 287°
2026-02-20 06:05 43.26213 24.55374 39931 ft 411 kts 287°
2026-02-20 06:06 43.28476 24.48152 39965 ft 411 kts 287°
2026-02-20 06:06 43.30736 24.40913 39929 ft 412 kts 287°
2026-02-20 06:07 43.32995 24.33656 39924 ft 413 kts 287°
2026-02-20 06:07 43.35248 24.26401 39927 ft 413 kts 287°
2026-02-20 06:08 43.37482 24.19188 39923 ft 413 kts 287°
2026-02-20 06:08 43.39730 24.11906 39928 ft 415 kts 287°
2026-02-20 06:09 43.41987 24.04574 39928 ft 417 kts 287°
2026-02-20 06:09 43.44243 23.97230 39924 ft 417 kts 287°
2026-02-20 06:10 43.46496 23.89874 39923 ft 417 kts 287°
2026-02-20 06:10 43.48748 23.82500 39928 ft 419 kts 287°
2026-02-20 06:11 43.51011 23.75059 39928 ft 422 kts 287°
2026-02-20 06:11 43.53270 23.67620 39923 ft 422 kts 287°
2026-02-20 06:12 43.55536 23.60141 39924 ft 422 kts 287°
2026-02-20 06:12 43.57793 23.52662 39932 ft 423 kts 288°
2026-02-20 06:13 43.60057 23.45136 39928 ft 425 kts 288°
2026-02-20 06:13 43.62305 23.37645 39927 ft 426 kts 288°
2026-02-20 06:14 43.64573 23.30066 39928 ft 426 kts 287°
2026-02-20 06:14 43.66829 23.22505 39945 ft 426 kts 288°
2026-02-20 06:15 43.69082 23.14930 39931 ft 426 kts 288°
2026-02-20 06:15 43.71329 23.07350 39930 ft 426 kts 288°
2026-02-20 06:16 43.73576 22.99753 39813 ft 422 kts 287°
2026-02-20 06:16 43.74680 22.96021 39587 ft 415 kts 287°
2026-02-20 06:16 43.75751 22.92398 39333 ft 409 kts 287°
2026-02-20 06:17 43.76821 22.88765 38989 ft 407 kts 287°
2026-02-20 06:17 43.77887 22.85132 38591 ft 406 kts 287°
2026-02-20 06:17 43.78945 22.81520 38119 ft 404 kts 286°
2026-02-20 06:17 43.79998 22.77923 37733 ft 401 kts 286°
2026-02-20 06:18 43.81038 22.74368 37342 ft 398 kts 285°
2026-02-20 06:18 43.82073 22.70827 36964 ft 394 kts 285°
2026-02-20 06:18 43.83099 22.67312 36585 ft 391 kts 284°
2026-02-20 06:18 43.84113 22.63833 36200 ft 389 kts 284°
2026-02-20 06:19 43.85123 22.60363 35809 ft 386 kts 283°
2026-02-20 06:19 43.86113 22.56952 35420 ft 385 kts 282°
2026-02-20 06:19 43.87109 22.53514 34994 ft 384 kts 282°
2026-02-20 06:19 43.88102 22.50080 34516 ft 384 kts 281°
2026-02-20 06:20 43.89097 22.46629 33962 ft 387 kts 280°
2026-02-20 06:20 43.90097 22.43151 33315 ft 388 kts 281°
2026-02-20 06:20 43.91132 22.39688 32753 ft 393 kts 285°
2026-02-20 06:20 43.92337 22.36291 32241 ft 393 kts 286°
2026-02-20 06:21 43.93483 22.33130 31696 ft 394 kts 287°
2026-02-20 06:21 43.94728 22.29715 31098 ft 396 kts 287°
2026-02-20 06:21 43.95840 22.26671 30610 ft 395 kts 288°
2026-02-20 06:21 43.96951 22.23639 30250 ft 394 kts 288°
2026-02-20 06:22 43.98111 22.20468 29843 ft 393 kts 288°
2026-02-20 06:22 43.99225 22.17421 29389 ft 391 kts 288°
2026-02-20 06:22 44.00455 22.14054 28941 ft 389 kts 288°
2026-02-20 06:22 44.01675 22.10710 28483 ft 386 kts 288°
2026-02-20 06:23 44.02784 22.07667 28077 ft 383 kts 289°
2026-02-20 06:23 44.03980 22.04377 27637 ft 380 kts 289°
2026-02-20 06:23 44.05167 22.01112 27215 ft 377 kts 289°
2026-02-20 06:23 44.06344 21.97867 26786 ft 375 kts 289°
2026-02-20 06:24 44.07516 21.94631 26319 ft 374 kts 289°
2026-02-20 06:24 44.08682 21.91406 25863 ft 373 kts 289°
2026-02-20 06:24 44.09849 21.88178 25429 ft 372 kts 289°
2026-02-20 06:24 44.11007 21.84972 24978 ft 370 kts 290°
2026-02-20 06:25 44.12157 21.81785 24553 ft 367 kts 290°
2026-02-20 06:25 44.13299 21.78619 24115 ft 365 kts 290°
2026-02-20 06:25 44.14435 21.75463 23683 ft 363 kts 290°
2026-02-20 06:25 44.15561 21.72331 23219 ft 361 kts 290°
2026-02-20 06:26 44.16678 21.69219 22769 ft 359 kts 290°
2026-02-20 06:26 44.17778 21.66153 22363 ft 357 kts 291°
2026-02-20 06:26 44.18887 21.63053 21918 ft 358 kts 291°
2026-02-20 06:26 44.20001 21.59937 21481 ft 358 kts 291°
2026-02-20 06:27 44.21109 21.56836 21048 ft 356 kts 291°
2026-02-20 06:27 44.22211 21.53753 20628 ft 354 kts 292°
2026-02-20 06:27 44.23254 21.50830 20239 ft 352 kts 292°
2026-02-20 06:27 44.24270 21.47978 19850 ft 350 kts 292°
2026-02-20 06:28 44.25351 21.44941 19407 ft 348 kts 292°
2026-02-20 06:28 44.26426 21.41917 19063 ft 347 kts 292°
2026-02-20 06:28 44.27501 21.38885 18823 ft 350 kts 292°
2026-02-20 06:28 44.28577 21.35852 18468 ft 346 kts 292°
2026-02-20 06:29 44.29642 21.32847 18007 ft 346 kts 293°
2026-02-20 06:29 44.30696 21.29869 17548 ft 345 kts 293°
2026-02-20 06:29 44.31753 21.26880 17119 ft 343 kts 293°
2026-02-20 06:29 44.32816 21.23905 16691 ft 341 kts 294°
2026-02-20 06:30 44.33911 21.20901 16426 ft 354 kts 294°
2026-02-20 06:30 44.35045 21.17800 16138 ft 361 kts 294°
2026-02-20 06:30 44.36188 21.14678 15847 ft 360 kts 294°
2026-02-20 06:30 44.37326 21.11570 15560 ft 358 kts 294°
2026-02-20 06:31 44.38457 21.08475 15238 ft 357 kts 294°
2026-02-20 06:31 44.39585 21.05381 14943 ft 357 kts 294°
2026-02-20 06:31 44.40712 21.02286 14639 ft 357 kts 295°
2026-02-20 06:31 44.41837 20.99197 14340 ft 355 kts 295°
2026-02-20 06:32 44.42941 20.96159 14030 ft 354 kts 295°
2026-02-20 06:32 44.44068 20.93056 13740 ft 352 kts 295°
2026-02-20 06:32 44.45163 20.90038 13429 ft 351 kts 295°
2026-02-20 06:32 44.46267 20.86991 13128 ft 349 kts 295°
2026-02-20 06:33 44.47362 20.83964 12836 ft 348 kts 295°
2026-02-20 06:33 44.48456 20.80938 12535 ft 346 kts 294°
2026-02-20 06:33 44.49537 20.77942 12246 ft 344 kts 294°
2026-02-20 06:33 44.50612 20.74960 11959 ft 343 kts 294°
2026-02-20 06:34 44.51689 20.71972 11679 ft 341 kts 294°
2026-02-20 06:34 44.52752 20.69019 11384 ft 339 kts 294°
2026-02-20 06:34 44.53810 20.66077 11082 ft 337 kts 294°
2026-02-20 06:34 44.54851 20.63177 10802 ft 335 kts 293°
2026-02-20 06:35 44.55898 20.60260 10545 ft 333 kts 293°
2026-02-20 06:35 44.56917 20.57422 10344 ft 319 kts 293°
2026-02-20 06:35 44.57898 20.54685 10092 ft 310 kts 293°
2026-02-20 06:35 44.58857 20.52002 9818 ft 302 kts 293°
2026-02-20 06:36 44.59793 20.49378 9473 ft 297 kts 293°
2026-02-20 06:36 44.60705 20.46819 9275 ft 291 kts 292°
2026-02-20 06:36 44.61609 20.44280 9160 ft 291 kts 292°
2026-02-20 06:36 44.62515 20.41734 8947 ft 290 kts 292°
2026-02-20 06:37 44.63403 20.39237 8705 ft 289 kts 292°
2026-02-20 06:37 44.64301 20.36714 8482 ft 288 kts 292°
2026-02-20 06:37 44.65192 20.34205 8231 ft 287 kts 292°
2026-02-20 06:37 44.66082 20.31694 7988 ft 286 kts 292°
2026-02-20 06:38 44.66964 20.29206 7752 ft 285 kts 292°
2026-02-20 06:38 44.67847 20.26713 7518 ft 284 kts 292°
2026-02-20 06:38 44.68726 20.24228 7270 ft 283 kts 293°
2026-02-20 06:38 44.69598 20.21761 7038 ft 282 kts 293°
2026-02-20 06:39 44.70470 20.19294 6789 ft 281 kts 293°
2026-02-20 06:39 44.71045 20.17665 6623 ft 281 kts 293°
2026-02-20 06:39 44.71908 20.15219 6390 ft 280 kts 293°
2026-02-20 06:39 44.72773 20.12762 6145 ft 278 kts 293°
2026-02-20 06:40 44.73630 20.10328 5902 ft 278 kts 293°
2026-02-20 06:40 44.74489 20.07885 5684 ft 277 kts 294°
2026-02-20 06:40 44.75341 20.05462 5428 ft 275 kts 294°
2026-02-20 06:40 44.76190 20.03044 5202 ft 275 kts 294°
2026-02-20 06:41 44.77040 20.00631 4971 ft 275 kts 295°
2026-02-20 06:41 44.78128 19.98420 4737 ft 278 kts 314°
2026-02-20 06:41 44.79777 19.97024 4508 ft 281 kts 343°
2026-02-20 06:41 44.81694 19.96819 4284 ft 282 kts
2026-02-20 06:42 44.83643 19.97137 4046 ft 282 kts
2026-02-20 06:42 44.85590 19.97534 3829 ft 279 kts 10°
2026-02-20 06:42 44.87479 19.97915 3642 ft 270 kts
2026-02-20 06:42 44.89317 19.98302 3444 ft 263 kts 14°
2026-02-20 06:43 44.90962 19.99277 3165 ft 253 kts 42°
2026-02-20 06:43 44.91969 20.01183 3005 ft 237 kts 75°
2026-02-20 06:43 44.92222 20.03358 2995 ft 216 kts 94°
2026-02-20 06:43 44.92221 20.05403 2992 ft 201 kts 97°
2026-02-20 06:44 44.92068 20.07267 3003 ft 185 kts 110°
2026-02-20 06:44 44.91607 20.08854 3012 ft 166 kts 123°
2026-02-20 06:44 44.91043 20.10197 2996 ft 153 kts 127°
2026-02-20 06:44 44.90477 20.11443 2997 ft 148 kts 128°
2026-02-20 06:45 44.89466 20.13709 2932 ft 126 kts 128°
2026-02-20 06:45 44.89004 20.14734 2769 ft 123 kts 128°
2026-02-20 06:45 44.88548 20.15757 2585 ft 123 kts 128°
2026-02-20 06:46 44.88094 20.16786 2422 ft 123 kts 128°
2026-02-20 06:46 44.87642 20.17811 2259 ft 123 kts 129°
2026-02-20 06:46 44.87190 20.18834 2082 ft 123 kts 128°
2026-02-20 06:46 44.86741 20.19851 1910 ft 122 kts 129°
2026-02-20 06:47 44.86293 20.20864 1745 ft 122 kts 128°
2026-02-20 06:47 44.85845 20.21878 1572 ft 121 kts 128°
2026-02-20 06:47 44.85392 20.22894 1426 ft 129 kts 127°
2026-02-20 06:47 44.84913 20.23957 1261 ft 123 kts 127°
2026-02-20 06:48 44.84465 20.24950 1058 ft 121 kts 125°
2026-02-20 06:48 44.84014 20.25947 874 ft 119 kts 122°
2026-02-20 06:48 44.83597 20.26959 682 ft 119 kts 121°
2026-02-20 06:48 44.83181 20.27924 551 ft 111 kts 122°
2026-02-20 06:49 44.82778 20.28830 415 ft 108 kts 123°
2026-02-20 06:49 44.82386 20.29734 355 ft 105 kts 124°
2026-02-20 06:49 44.82083 20.30391 332 ft 42 kts 122°
2026-02-20 06:49 44.81937 20.30717 334 ft 36 kts 122°
2026-02-20 06:50 44.81815 20.30994 333 ft 29 kts 122°
2026-02-20 06:50 44.81725 20.31165 332 ft 15 kts 140°
2026-02-20 06:50 44.81656 20.31214 333 ft 11 kts 165°
2026-02-20 06:50 44.81598 20.31220 334 ft 7 kts 181°
2026-02-20 06:51 44.81549 20.31213 338 ft 7 kts 197°
2026-02-20 06:51 44.81506 20.31185 336 ft 7 kts 212°
2026-02-20 06:51 44.81469 20.31139 333 ft 7 kts 234°
2026-02-20 06:51 44.81466 20.31065 336 ft 8 kts 285°
2026-02-20 06:52 44.81495 20.31000 334 ft 9 kts 303°
2026-02-20 06:52 44.81534 20.30913 333 ft 12 kts 302°
2026-02-20 06:52 44.81583 20.30802 335 ft 15 kts 302°
2026-02-20 06:52 44.81637 20.30675 334 ft 16 kts 301°
2026-02-20 06:53 44.81701 20.30527 332 ft 19 kts 302°
2026-02-20 06:53 44.81776 20.30360 331 ft 21 kts 302°
2026-02-20 06:53 44.81852 20.30185 330 ft 21 kts 302°
2026-02-20 06:53 44.81935 20.30000 331 ft 23 kts 302°
2026-02-20 06:54 44.82017 20.29815 329 ft 20 kts 302°
2026-02-20 06:54 44.82072 20.29690 329 ft 14 kts 302°
2026-02-20 06:54 44.82113 20.29579 330 ft 11 kts 277°
2026-02-20 06:54 44.82068 20.29499 328 ft 12 kts 211°
2026-02-20 06:55 44.82005 20.29445 330 ft 7 kts 210°
2026-02-20 06:55 44.81959 20.29403 329 ft 9 kts 215°
2026-02-20 06:55 44.81917 20.29365 329 ft 5 kts 211°
2026-02-20 06:55 44.81882 20.29327 330 ft 4 kts 233°
2026-02-20 06:56 44.81879 20.29292 327 ft 4 kts 274°
2026-02-20 06:56 44.81884 20.29267 328 ft 1 kts 286°
2026-02-20 06:56 44.81889 20.29254 329 ft 2 kts 299°
2026-02-20 06:56 44.81892 20.29245 329 ft 1 kts 297°
2026-02-20 06:57 44.81893 20.29243 329 ft 0 kts 296°
2026-02-20 06:57 44.81894 20.29240 330 ft 0 kts 296°